Regional Weather Roundup
Issued by NWS

Home | Current Version | Previous Version | Graphics & Text | Print | Product List | Glossary On
Versions: 1 2 3 4 5 6 7 8 9 10 11 12 13 14 15 16 17 18 19 20 21 22 23 24 25 26 27 28 29 30 31 32 33 34 35 36 37 38 39 40 41 42 43 44 45 46 47 48 49 50
000
ASUS45 KBOI 262210
RWRID

IDAHO REGIONAL WEATHER ROUNDUP
NATIONAL WEATHER SERVICE BOISE ID
400 PM MDT WED APR 26 2017

NOTE: "FAIR" INDICATES FEW OR NO CLOUDS BELOW 12000 FEET
WITH NO SIGNIFICANT WEATHER AND/OR OBSTRUCTIONS TO VISIBILITY

IDZ012-014-262300-
SOUTHWEST IDAHO


CITY           SKY/WX    TMP DP  RH WIND       PRES   REMARKS
BOISE          CLOUDY    49  42  77 NE6       29.77F
CALDWELL       CLOUDY    52  44  74 CALM      29.76F
MOUNTAIN HOME  PTSUNNY   51  47  86 NW10      29.77F
$$

IDZ016-017-262300-
SOUTHCENTRAL IDAHO


CITY           SKY/WX    TMP DP  RH WIND       PRES   REMARKS
BURLEY         LGT RAIN  45  41  86 W12       29.77F FOG
JEROME         LGT RAIN  46  43  89 W8        29.77F
TWIN FALLS     LGT RAIN  45  42  89 SW9       29.78F
$$

IDZ019>023-262300-
SOUTHEAST IDAHO


CITY           SKY/WX    TMP DP  RH WIND       PRES   REMARKS
IDAHO FALLS    CLOUDY    44  40  85 S21       29.73S
POCATELLO      LGT RAIN  47  41  80 SW17      29.77F
REXBURG        LGT RAIN  41  37  86 SW12G29   29.71F FOG
$$

IDZ006-010-011-018-031-032-262300-
CENTRAL IDAHO MOUNTAINS


CITY           SKY/WX    TMP DP  RH WIND       PRES   REMARKS
MCCALL         LGT RAIN  41  35  79 S9        29.70F
HAILEY         DRIZZLE   46  36  66 N6        29.73F
STANLEY          N/A     37  29  72 SE3       29.74S
SALMON         CLOUDY    43  37  81 N12       29.70F
CHALLIS        CLOUDY    50  28  42 S6        29.67F
$$

IDZ002-004-006-007-026-262300-
NORTHERN IDAHO


CITY           SKY/WX    TMP DP  RH WIND       PRES   REMARKS
LEWISTON       LGT RAIN  49  42  77 NW9       29.75S
LOWELL           N/A     51  41  68 VRB3      29.75R
COEUR D`ALENE  CLOUDY    53  37  54 SW12      29.67F
MULLAN PASS    FOG       32  32 100 VRB3      29.65F VSB 3/4
$$



USA.gov is the U.S. government's official web portal to all federal, state and local government web resources and services.